Pine Bluffs Muni, Pine Bluffs, WY

9:43 AM MDT on September 19, 2017 (GMT -0600)
Pine Bluffs Muni, Pine Bluffs

Weather History for K82V - December, 2013

Change the Weather History Date:

Tuesday, December 3, 2013

  Actual Average (KCYS) Record (KCYS)
Temperature  
Mean Temperature 25 °F -  
Max Temperature 42 °F 43 °F 66 °F (1941)
Min Temperature 8 °F 21 °F -9 °F (1873)
Degree Days  
Heating Degree Days 40    
Moisture  
Dew Point 17 °F    
Average Humidity 79    
Maximum Humidity 93    
Minimum Humidity 46    
Precipitation  
Precipitation 0.00 in - - ()
Sea Level Pressure  
Sea Level Pressure 29.62 in    
Wind  
Wind Speed 13 mph (NNW)    
Max Wind Speed 29 mph    
Max Gust Speed 36 mph    
Visibility 7 miles    
Events Snow    
Averages and records for this station are not official NWS values.
T = Trace of Precipitation, MM = Missing Value Source: NWS Daily Summary

Daily Weather History Graph

Daily Weather History Graph

Search for Another Location

Airport or City:

Trip Planner

Search our weather history database for the weather conditions in past years. The results will help you decide how hot, cold, wet, or windy it might be!

Date:

Astronomy

Dec. 03, 2013 Rise Set
Actual Time 7:04 AM MST 4:28 PM MST
Civil Twilight 6:34 AM MST 4:58 PM MST
Nautical Twilight 5:59 AM MST 5:33 PM MST
Astronomical Twilight 5:26 AM MST 6:06 PM MST
Moon 7:36 AM MST (12/3) 5:34 PM MST (12/3)
Length of Visible Light 10h 24m
Length of Day
9h 23m
New Moon, 1% of the Moon is Illuminated
Dec 3
New Moon
Dec 9
First Quarter
Dec 17
Full
Dec 25
Last Quarter
Jan 1
New

Hourly Weather History & Observations

Time (MST) Temp. Windchill Dew Point Humidity Pressure Visibility Wind Dir Wind Speed Gust Speed Precip Events Conditions
12:15 AM 42.8 °F 35.4 °F 23.0 °F 46% 29.54 in 10.0 mi WSW 15.0 mph - N/A   Clear
12:35 AM 42.8 °F 35.4 °F 23.0 °F 46% 29.54 in 10.0 mi WSW 15.0 mph - N/A   Clear
12:55 AM 39.2 °F 33.0 °F 23.0 °F 52% 29.53 in 10.0 mi WSW 9.2 mph - N/A   Clear
1:15 AM 37.4 °F 32.1 °F 23.0 °F 56% 29.55 in 10.0 mi SSW 6.9 mph - N/A   Clear
1:35 AM 33.8 °F 27.0 °F 23.0 °F 65% 29.55 in 10.0 mi SE 8.1 mph - N/A   Clear
1:55 AM 35.6 °F 30.7 °F 24.8 °F 65% 29.55 in 10.0 mi South 5.8 mph - N/A   Clear
2:15 AM 41.0 °F 33.9 °F 26.6 °F 57% 29.54 in 10.0 mi SW 12.7 mph - N/A   Clear
2:35 AM 41.0 °F 32.8 °F 26.6 °F 57% 29.54 in 10.0 mi WSW 16.1 mph - N/A   Clear
2:55 AM 37.4 °F 31.4 °F 26.6 °F 65% 29.55 in 10.0 mi WSW 8.1 mph - N/A   Clear
3:15 AM 35.6 °F 32.8 °F 26.6 °F 70% 29.54 in 10.0 mi West 3.5 mph - N/A   Scattered Clouds
3:35 AM 35.6 °F 29.9 °F 26.6 °F 70% 29.53 in 10.0 mi SW 6.9 mph - N/A   Clear
3:55 AM 33.8 °F 27.0 °F 26.6 °F 75% 29.52 in 10.0 mi SSW 8.1 mph - N/A   Clear
4:15 AM 32.0 °F - 24.8 °F 75% 29.52 in 10.0 mi Calm Calm - N/A   Clear
4:35 AM 32.0 °F 26.4 °F 24.8 °F 75% 29.51 in 10.0 mi SSW 5.8 mph - N/A   Clear
4:55 AM 32.0 °F 26.4 °F 24.8 °F 75% 29.51 in 10.0 mi SSW 5.8 mph - N/A   Clear
5:15 AM 32.0 °F 24.8 °F 24.8 °F 75% 29.49 in 10.0 mi South 8.1 mph - N/A   Clear
5:35 AM 33.8 °F - 24.8 °F 70% 29.50 in 10.0 mi Calm Calm - N/A   Clear
5:55 AM 30.2 °F - 23.0 °F 75% 29.49 in 10.0 mi Calm Calm - N/A   Clear
6:15 AM 28.4 °F - 23.0 °F 80% 29.49 in 10.0 mi Calm Calm - N/A   Clear
6:35 AM 30.2 °F - 23.0 °F 75% 29.51 in 10.0 mi Calm Calm - N/A   Clear
6:55 AM 30.2 °F 25.4 °F 24.8 °F 80% 29.50 in 10.0 mi NE 4.6 mph - N/A   Scattered Clouds
7:15 AM 32.0 °F 26.4 °F 26.6 °F 80% 29.51 in 10.0 mi WNW 5.8 mph - N/A   Overcast
7:35 AM 32.0 °F 27.5 °F 26.6 °F 80% 29.52 in 10.0 mi NW 4.6 mph - N/A   Overcast
7:55 AM 32.0 °F - 28.4 °F 87% 29.53 in 10.0 mi Calm Calm - N/A   Overcast
8:15 AM 35.6 °F 24.8 °F 30.2 °F 81% 29.54 in 10.0 mi North 19.6 mph 26.5 mph N/A   Overcast
8:35 AM 32.0 °F 19.2 °F 30.2 °F 93% 29.56 in 10.0 mi North 23.0 mph - N/A   Overcast
8:55 AM 30.2 °F 17.1 °F 26.6 °F 86% 29.58 in 10.0 mi North 21.9 mph 29.9 mph N/A   Overcast
9:15 AM 26.6 °F 12.7 °F 23.0 °F 86% 29.58 in 10.0 mi North 20.7 mph 25.3 mph N/A   Overcast
9:30 AM 26.6 °F 13.8 °F 21.2 °F 80% 29.59 in 10.0 mi North 17.3 mph 24.2 mph N/A   Mostly Cloudy
10:15 AM 28.4 °F 17.0 °F 21.2 °F 74% 29.60 in 10.0 mi North 15.0 mph 20.7 mph N/A   Mostly Cloudy
10:35 AM 26.6 °F 13.8 °F 21.2 °F 80% 29.59 in 10.0 mi North 17.3 mph 20.7 mph N/A   Overcast
10:55 AM 24.8 °F 10.0 °F 21.2 °F 86% 29.60 in 10.0 mi North 21.9 mph - N/A   Overcast
11:15 AM 23.0 °F 8.3 °F 19.4 °F 86% 29.62 in 10.0 mi North 19.6 mph 27.6 mph N/A   Overcast
11:35 AM 21.2 °F 4.9 °F 19.4 °F 93% 29.61 in 10.0 mi North 23.0 mph 31.1 mph N/A Snow Light Snow
11:55 AM 21.2 °F 3.5 °F 17.6 °F 86% 29.62 in 5.0 mi NNW 27.6 mph 33.4 mph N/A Snow Light Snow
12:15 PM 21.2 °F 4.2 °F 15.8 °F 80% 29.63 in 5.0 mi NNW 25.3 mph 33.4 mph N/A Snow Light Snow
12:35 PM 21.2 °F 3.9 °F 14.0 °F 74% 29.63 in 7.0 mi North 26.5 mph 34.5 mph N/A Snow Light Snow
12:55 PM 19.4 °F 0.8 °F 14.0 °F 80% 29.63 in 7.0 mi North 28.8 mph 35.7 mph N/A Snow Light Snow
1:15 PM 19.4 °F 1.1 °F 14.0 °F 80% 29.62 in 4.0 mi North 27.6 mph 33.4 mph N/A Snow Light Snow
1:35 PM 19.4 °F 3.2 °F 14.0 °F 80% 29.62 in 2.0 mi North 20.7 mph 35.7 mph N/A Snow Light Snow
1:55 PM 17.6 °F 0.9 °F 12.2 °F 79% 29.59 in 7.0 mi North 20.7 mph 33.4 mph N/A   Overcast
2:15 PM 17.6 °F 0.5 °F 12.2 °F 79% 29.63 in 7.0 mi North 21.9 mph 28.8 mph N/A   Overcast
2:35 PM 17.6 °F 0.9 °F 12.2 °F 79% 29.62 in 4.0 mi North 20.7 mph 27.6 mph N/A Snow Light Snow
2:55 PM 17.6 °F 0.9 °F 12.2 °F 79% 29.63 in 10.0 mi North 20.7 mph 28.8 mph N/A   Overcast
3:15 PM 17.6 °F 1.3 °F 12.2 °F 79% 29.65 in 5.0 mi North 19.6 mph 28.8 mph N/A Snow Light Snow
3:35 PM 15.8 °F -1.9 °F 12.2 °F 86% 29.63 in 5.0 mi North 21.9 mph 25.3 mph N/A Snow Light Snow
3:55 PM 15.8 °F -2.7 °F 10.4 °F 79% 29.65 in 5.0 mi North 24.2 mph 31.1 mph N/A Snow Light Snow
4:15 PM 14.0 °F -2.5 °F 12.2 °F 93% 29.66 in 1.0 mi North 17.3 mph 27.6 mph N/A Snow Light Snow
4:35 PM 14.0 °F -3.0 °F 12.2 °F 93% 29.67 in 1.8 mi North 18.4 mph 23.0 mph N/A Snow Light Snow
4:55 PM 14.0 °F -3.0 °F 12.2 °F 93% 29.67 in 1.5 mi North 18.4 mph 24.2 mph N/A Snow Light Snow
5:15 PM 14.0 °F -4.7 °F 10.4 °F 86% 29.68 in 2.5 mi North 23.0 mph 29.9 mph N/A Snow Light Snow
5:35 PM 14.0 °F -3.9 °F 10.4 °F 86% 29.70 in 2.0 mi NNW 20.7 mph 26.5 mph N/A Snow Light Snow
5:55 PM 14.0 °F -2.0 °F 10.4 °F 86% 29.70 in 2.5 mi North 16.1 mph 24.2 mph N/A Snow Light Snow
6:15 PM 12.2 °F -4.8 °F 10.4 °F 92% 29.70 in 4.0 mi North 17.3 mph 25.3 mph N/A Snow Light Snow
6:35 PM 12.2 °F -5.3 °F 8.6 °F 85% 29.71 in 2.5 mi North 18.4 mph - N/A Snow Light Snow
6:55 PM 12.2 °F -3.7 °F 8.6 °F 85% 29.73 in 2.0 mi North 15.0 mph 26.5 mph N/A Snow Light Snow
7:15 PM 12.2 °F -5.3 °F 8.6 °F 85% 29.74 in 2.5 mi North 18.4 mph 24.2 mph N/A Snow Light Snow
7:35 PM 12.2 °F -4.3 °F 8.6 °F 85% 29.74 in 5.0 mi North 16.1 mph 25.3 mph N/A Snow Light Snow
7:55 PM 12.2 °F -3.1 °F 8.6 °F 85% 29.75 in 5.0 mi NNW 13.8 mph 27.6 mph N/A Snow Light Snow
8:15 PM 12.2 °F -5.3 °F 8.6 °F 85% 29.74 in 7.0 mi North 18.4 mph 25.3 mph N/A Snow Light Snow
8:35 PM 10.4 °F -7.2 °F 6.8 °F 85% 29.76 in 5.0 mi North 17.3 mph 28.8 mph N/A Snow Light Snow
8:55 PM 10.4 °F -7.2 °F 6.8 °F 85% 29.76 in 3.0 mi North 17.3 mph - N/A Snow Light Snow
9:15 PM 10.4 °F -7.2 °F 6.8 °F 85% 29.74 in 1.5 mi North 17.3 mph 23.0 mph N/A Snow Light Snow
9:35 PM 10.4 °F -7.7 °F 6.8 °F 85% 29.75 in 2.5 mi North 18.4 mph 26.5 mph N/A Snow Light Snow
9:55 PM 10.4 °F -6.6 °F 5.0 °F 79% 29.74 in 4.0 mi North 16.1 mph 21.9 mph N/A Snow Light Snow
10:15 PM 10.4 °F -7.2 °F 5.0 °F 79% 29.73 in 2.5 mi North 17.3 mph 21.9 mph N/A Snow Light Snow
10:35 PM 10.4 °F -6.6 °F 5.0 °F 79% 29.76 in 1.8 mi North 16.1 mph - N/A Snow Light Snow
10:55 PM 10.4 °F -7.2 °F 5.0 °F 79% 29.75 in 2.5 mi NNW 17.3 mph - N/A Snow Light Snow
11:15 PM 8.6 °F -10.5 °F 5.0 °F 85% 29.75 in 4.0 mi NNW 19.6 mph 26.5 mph N/A Snow Light Snow
11:35 PM 8.6 °F -9.5 °F 5.0 °F 85% 29.75 in 2.5 mi North 17.3 mph 25.3 mph N/A Snow Light Snow
11:55 PM 8.6 °F -8.3 °F 5.0 °F 85% 29.76 in 2.5 mi NNW 15.0 mph 19.6 mph N/A Snow Light Snow